When you browse on this site, cookies collect data to enhance your experience and personalize the content and advertising you see.
Visit our Privacy Policy to learn more. By continuing to use the site, you agree to this use of cookies and data.
  • en France
  • Liste des pays
  • À 7 jours
  • Température de l'eau
  • Carte météo
  • Widgets météo
  • user-avatar
    Se connecter

    Météo par heure à Moung

    Ce jour, 4 Avril, Samedi

    Heure Température Précipitation Vent Pression Humidité
    00:00 +29°C° 0 mm 4 m/s 757 mmHg 68%
    01:00 +28°C° 0 mm 3 m/s 757 mmHg 73%
    02:00 +28°C° 0 mm 3 m/s 757 mmHg 76%
    03:00 +27°C° 0 mm 2 m/s 757 mmHg 78%
    04:00 +27°C° 0 mm 2 m/s 757 mmHg 81%
    05:00 +28°C° 0 mm 2 m/s 757 mmHg 79%
    06:00 +28°C° 0 mm 2 m/s 757 mmHg 78%
    07:00 +29°C° 0 mm 1 m/s 758 mmHg 76%
    08:00 +30°C° 0 mm 2 m/s 758 mmHg 70%
    09:00 +33°C° 0 mm 3 m/s 758 mmHg 64%
    10:00 +34°C° 0 mm 3 m/s 758 mmHg 59%
    11:00 +35°C° 0 mm 3 m/s 757 mmHg 53%
    12:00 +37°C° 0 mm 2 m/s 757 mmHg 48%
    13:00 +37°C° 0 mm 1 m/s 756 mmHg 42%
    14:00 +39°C° 0 mm 1 m/s 755 mmHg 39%
    15:00 +39°C° 0 mm 2 m/s 754 mmHg 36%
    16:00 +40°C° 0 mm 2 m/s 754 mmHg 33%
    17:00 +38°C° 0 mm 2 m/s 754 mmHg 37%
    18:00 +37°C° 0 mm 2 m/s 755 mmHg 40%
    19:00 +35°C° 0 mm 2 m/s 755 mmHg 44%
    20:00 +34°C° 0 mm 4 m/s 756 mmHg 48%
    21:00 +33°C° 0 mm 5 m/s 757 mmHg 53%
    22:00 +32°C° 0 mm 6 m/s 758 mmHg 57%
    23:00 +30°C° 0 mm 5 m/s 757 mmHg 64%

    Demain, 5 Avril, Dimanche

    Heure Température Précipitation Vent Pression Humidité
    00:00 +29°C° 0 mm 4 m/s 757 mmHg 71%
    01:00 +28°C° 0 mm 3 m/s 757 mmHg 78%
    02:00 +27°C° 0 mm 3 m/s 757 mmHg 79%
    03:00 +27°C° 0 mm 3 m/s 757 mmHg 80%
    04:00 +27°C° 0 mm 2 m/s 757 mmHg 82%
    05:00 +27°C° 0 mm 2 m/s 757 mmHg 78%
    06:00 +28°C° 0 mm 3 m/s 757 mmHg 75%
    07:00 +28°C° 0 mm 3 m/s 758 mmHg 72%
    08:00 +31°C° 0 mm 3 m/s 758 mmHg 62%
    09:00 +34°C° 0 mm 4 m/s 758 mmHg 53%
    10:00 +36°C° 0 mm 4 m/s 758 mmHg 43%
    11:00 +38°C° 0 mm 4 m/s 758 mmHg 38%
    12:00 +40°C° 0 mm 3 m/s 757 mmHg 33%
    13:00 +42°C° 0 mm 3 m/s 756 mmHg 28%
    14:00 +43°C° 0 mm 3 m/s 755 mmHg 26%
    15:00 +43°C° 0 mm 3 m/s 754 mmHg 24%
    16:00 +43°C° 0 mm 3 m/s 753 mmHg 23%
    17:00 +42°C° 0 mm 3 m/s 754 mmHg 26%
    18:00 +39°C° 0 mm 3 m/s 754 mmHg 29%
    19:00 +37°C° 0 mm 3 m/s 755 mmHg 33%
    20:00 +35°C° 0 mm 3 m/s 756 mmHg 43%
    21:00 +34°C° 0 mm 4 m/s 757 mmHg 53%
    22:00 +32°C° 0 mm 4 m/s 757 mmHg 62%
    23:00 +32°C° 0 mm 4 m/s 757 mmHg 66%

    Après-demain, 6 Avril, Lundi

    Heure Température Précipitation Vent Pression Humidité
    00:00 +30°C° 0 mm 4 m/s 757 mmHg 70%
    01:00 +29°C° 0 mm 5 m/s 757 mmHg 74%
    02:00 +29°C° 0 mm 4 m/s 757 mmHg 77%
    03:00 +28°C° 0 mm 3 m/s 757 mmHg 79%
    04:00 +28°C° 0 mm 3 m/s 756 mmHg 82%
    05:00 +28°C° 0 mm 3 m/s 757 mmHg 79%
    06:00 +29°C° 0 mm 3 m/s 757 mmHg 76%
    07:00 +29°C° 0 mm 3 m/s 758 mmHg 73%
    08:00 +32°C° 0 mm 4 m/s 758 mmHg 64%
    09:00 +34°C° 0 mm 4 m/s 758 mmHg 55%
    10:00 +36°C° 0 mm 4 m/s 758 mmHg 46%
    11:00 +38°C° 0 mm 4 m/s 757 mmHg 41%
    12:00 +39°C° 0 mm 3 m/s 757 mmHg 37%
    13:00 +40°C° 0 mm 3 m/s 756 mmHg 32%
    14:00 +40°C° 0 mm 3 m/s 755 mmHg 32%
    15:00 +40°C° 0 mm 3 m/s 754 mmHg 32%
    16:00 +40°C° 0 mm 3 m/s 753 mmHg 31%
    17:00 +38°C° 0 mm 3 m/s 754 mmHg 37%
    18:00 +37°C° 0 mm 4 m/s 754 mmHg 42%
    19:00 +35°C° 0 mm 4 m/s 754 mmHg 48%
    20:00 +34°C° 0 mm 3 m/s 755 mmHg 53%
    21:00 +33°C° 0 mm 3 m/s 756 mmHg 59%
    22:00 +30°C° 0 mm 3 m/s 757 mmHg 65%
    23:00 +30°C° 0.1 mm 3 m/s 757 mmHg 68%

    7 Avril, Mardi

    Heure Température Précipitation Vent Pression Humidité
    00:00 +30°C° 0.1 mm 3 m/s 757 mmHg 70%
    01:00 +29°C° 0.1 mm 4 m/s 757 mmHg 73%
    02:00 +29°C° 0.1 mm 4 m/s 756 mmHg 75%
    03:00 +29°C° 0.1 mm 4 m/s 756 mmHg 77%
    04:00 +28°C° 0.1 mm 4 m/s 756 mmHg 79%
    05:00 +28°C° 0 mm 4 m/s 756 mmHg 78%
    06:00 +29°C° 0 mm 4 m/s 757 mmHg 77%
    07:00 +29°C° 0 mm 4 m/s 757 mmHg 76%
    08:00 +32°C° 0 mm 4 m/s 757 mmHg 67%
    09:00 +34°C° 0 mm 3 m/s 757 mmHg 59%
    10:00 +36°C° 0 mm 3 m/s 758 mmHg 50%
    11:00 +37°C° 0 mm 3 m/s 757 mmHg 44%
    12:00 +39°C° 0 mm 2 m/s 756 mmHg 39%
    13:00 +40°C° 0 mm 2 m/s 755 mmHg 33%
    14:00 +40°C° 0 mm 2 m/s 754 mmHg 35%
    15:00 +39°C° 0 mm 3 m/s 754 mmHg 37%
    16:00 +38°C° 0 mm 4 m/s 753 mmHg 39%
    17:00 +37°C° 0.2 mm 4 m/s 753 mmHg 45%
    18:00 +35°C° 0.2 mm 4 m/s 754 mmHg 51%
    19:00 +33°C° 0.2 mm 4 m/s 754 mmHg 57%
    20:00 +33°C° 0.2 mm 3 m/s 755 mmHg 60%
    21:00 +31°C° 0.2 mm 3 m/s 756 mmHg 63%
    22:00 +30°C° 0.2 mm 2 m/s 756 mmHg 66%
    23:00 +30°C° 0.8 mm 2 m/s 756 mmHg 70%

    8 Avril, Mercredi

    Heure Température Précipitation Vent Pression Humidité
    00:00 +30°C° 0.8 mm 2 m/s 756 mmHg 73%
    01:00 +29°C° 0.8 mm 3 m/s 756 mmHg 76%
    02:00 +29°C° 0.7 mm 3 m/s 756 mmHg 77%
    03:00 +29°C° 0.7 mm 3 m/s 755 mmHg 77%
    04:00 +29°C° 0.7 mm 3 m/s 755 mmHg 78%
    05:00 +29°C° 0 mm 3 m/s 756 mmHg 77%
    06:00 +29°C° 0 mm 4 m/s 756 mmHg 75%
    07:00 +30°C° 0 mm 4 m/s 757 mmHg 74%
    08:00 +32°C° 0 mm 4 m/s 757 mmHg 67%
    09:00 +34°C° 0 mm 4 m/s 757 mmHg 59%
    10:00 +36°C° 0 mm 4 m/s 757 mmHg 51%
    11:00 +37°C° 0 mm 4 m/s 757 mmHg 47%
    12:00 +38°C° 0 mm 3 m/s 756 mmHg 43%
    13:00 +39°C° 0 mm 3 m/s 755 mmHg 39%
    14:00 +39°C° 0.1 mm 3 m/s 755 mmHg 40%
    15:00 +38°C° 0.1 mm 3 m/s 754 mmHg 41%
    16:00 +38°C° 0.1 mm 3 m/s 754 mmHg 41%
    17:00 +36°C° 2.8 mm 3 m/s 754 mmHg 53%
    18:00 +33°C° 2.8 mm 3 m/s 755 mmHg 65%
    19:00 +29°C° 2.8 mm 2 m/s 755 mmHg 77%
    20:00 +28°C° 2 mm 4 m/s 756 mmHg 80%
    21:00 +28°C° 2 mm 5 m/s 757 mmHg 82%
    22:00 +27°C° 2 mm 7 m/s 757 mmHg 85%
    23:00 +27°C° 0.4 mm 6 m/s 757 mmHg 83%

    9 Avril, Jeudi

    Heure Température Précipitation Vent Pression Humidité
    00:00 +27°C° 0.4 mm 6 m/s 757 mmHg 81%
    01:00 +27°C° 0.4 mm 5 m/s 757 mmHg 79%
    02:00 +27°C° 0 mm 4 m/s 757 mmHg 78%
    03:00 +27°C° 0 mm 3 m/s 756 mmHg 78%
    04:00 +26°C° 0 mm 2 m/s 756 mmHg 78%
    05:00 +27°C° 0 mm 2 m/s 757 mmHg 77%
    06:00 +27°C° 0 mm 2 m/s 757 mmHg 76%
    07:00 +27°C° 0 mm 2 m/s 757 mmHg 75%
    08:00 +29°C° 0 mm 2 m/s 758 mmHg 68%
    09:00 +31°C° 0 mm 2 m/s 758 mmHg 61%
    10:00 +34°C° 0 mm 3 m/s 758 mmHg 53%
    11:00 +35°C° 0 mm 2 m/s 757 mmHg 49%
    12:00 +36°C° 0 mm 2 m/s 756 mmHg 45%
    13:00 +37°C° 0 mm 2 m/s 756 mmHg 41%
    14:00 +38°C° 0 mm 2 m/s 755 mmHg 40%
    15:00 +38°C° 0 mm 2 m/s 755 mmHg 39%
    16:00 +38°C° 0 mm 2 m/s 754 mmHg 38%
    17:00 +37°C° 0 mm 2 m/s 754 mmHg 42%
    18:00 +36°C° 0 mm 2 m/s 755 mmHg 46%
    19:00 +35°C° 0 mm 3 m/s 755 mmHg 49%
    20:00 +34°C° 0 mm 3 m/s 756 mmHg 54%
    21:00 +33°C° 0 mm 4 m/s 757 mmHg 58%
    22:00 +32°C° 0 mm 4 m/s 757 mmHg 63%
    23:00 +32°C° 0 mm 4 m/s 757 mmHg 65%
    Voir plus